Weather History for KTCM - July, 2012

Change the Weather History Date:

Monday, July 2, 2012

  Actual Average Record
Temperature  
Mean Temperature 58 °F -  
Max Temperature 65 °F 70 °F 91 °F (1968)
Min Temperature 50 °F 49 °F 39 °F (1962)
Degree Days  
Heating Degree Days 8    
Growing Degree Days 8 (Base 50)    
Moisture  
Dew Point 50 °F    
Average Humidity 77    
Maximum Humidity 100    
Minimum Humidity 58    
Precipitation  
Precipitation 0.03 in - - ()
Sea Level Pressure  
Sea Level Pressure 29.96 in    
Wind  
Wind Speed 4 mph (WSW)    
Max Wind Speed 12 mph    
Max Gust Speed -    
Visibility 10 miles    
Events Rain    
Averages and records for this station are not official NWS values.
T = Trace of Precipitation, MM = Missing Value Source: NWS Daily Summary

Daily Weather History Graph

Daily Weather History Graph

Search for Another Location

Airport or City:

Trip Planner

Search our weather history database for the weather conditions in past years. The results will help you decide how hot, cold, wet, or windy it might be!

Date:

Astronomy

Jul. 02, 2012 Rise Set
Actual Time 5:19 AM PDT 9:08 PM PDT
Civil Twilight 4:39 AM PDT 9:48 PM PDT
Nautical Twilight 3:45 AM PDT 10:41 PM PDT
Astronomical Twilight 2:26 AM PDT 12:00 AM PDT
Moon 8:13 PM PDT (7/2) 4:13 AM PDT (7/2)
Length of Visible Light 17h 08m
Length of Day
15h 49m
Waxing Gibbous, 99% of the Moon is Illuminated
Jul 2
Waxing Gibbous
Jul 3
Full
Jul 10
Last Quarter
Jul 18
New
Jul 26
First Quarter

Hourly Weather History & Observations

Time (PDT) Temp. Dew Point Humidity Pressure Visibility Wind Dir Wind Speed Gust Speed Precip Events Conditions
12:58 AM 55.2 °F 48.6 °F 78% 30.05 in 10.0 mi SSW 3.5 mph - N/A   Clear
1:58 AM 51.8 °F 48.4 °F 88% 30.05 in 10.0 mi South 2.3 mph - N/A   Mostly Cloudy
2:58 AM 53.1 °F 48.0 °F 83% 30.04 in 10.0 mi South 2.3 mph - N/A   Scattered Clouds
3:58 AM 50.7 °F 48.2 °F 91% 30.03 in 10.0 mi Calm Calm - N/A   Scattered Clouds
4:58 AM 51.4 °F 48.0 °F 88% 30.02 in 10.0 mi WSW 2.3 mph - N/A   Overcast
5:58 AM 51.8 °F 48.9 °F 90% 30.02 in 10.0 mi South 1.2 mph - N/A   Overcast
6:58 AM 53.2 °F 49.8 °F 88% 30.02 in 10.0 mi South 2.3 mph - N/A   Overcast
7:58 AM 54.9 °F 49.6 °F 83% 30.02 in 10.0 mi WSW 3.5 mph - N/A   Overcast
8:55 AM 56.7 °F 50.0 °F 78% 30.02 in 10.0 mi Calm Calm - N/A   Overcast
9:02 AM 56.7 °F 50.0 °F 78% 30.02 in 10.0 mi Calm Calm - N/A   Overcast
9:58 AM 57.4 °F 49.6 °F 75% 30.01 in 10.0 mi Calm Calm - N/A   Overcast
10:58 AM 59.2 °F 47.8 °F 66% 30.00 in 10.0 mi West 5.8 mph - N/A   Mostly Cloudy
11:58 AM 59.5 °F 47.5 °F 64% 29.99 in 10.0 mi West 4.6 mph - N/A   Mostly Cloudy
12:58 PM 62.6 °F 48.7 °F 60% 29.99 in 10.0 mi Variable 6.9 mph - N/A   Mostly Cloudy
1:58 PM 63.3 °F 49.3 °F 60% 29.97 in 10.0 mi WSW 4.6 mph - N/A   Overcast
2:58 PM 65.1 °F 50.2 °F 58% 29.96 in 10.0 mi WNW 8.1 mph - N/A   Overcast
3:36 PM 64.4 °F 50.0 °F 59% 29.95 in 10.0 mi WNW 5.8 mph - N/A Rain Light Rain
3:46 PM 64.4 °F 50.0 °F 59% 29.95 in 10.0 mi WNW 5.8 mph - N/A   Scattered Clouds
3:58 PM 64.2 °F 50.5 °F 61% 29.95 in 10.0 mi NNW 4.6 mph - 0.00 in   Mostly Cloudy
4:58 PM 64.4 °F 50.5 °F 61% 29.94 in 10.0 mi WNW 3.5 mph - N/A   Overcast
5:58 PM 63.5 °F 48.7 °F 59% 29.94 in 10.0 mi West 8.1 mph - N/A   Overcast
5:59 PM 62.6 °F 48.2 °F 59% 29.93 in 10.0 mi WNW 8.1 mph - N/A Rain Light Rain
6:17 PM 62.6 °F 50.0 °F 63% 29.92 in 10.0 mi West 8.1 mph - N/A   Mostly Cloudy
6:58 PM 61.9 °F 50.2 °F 65% 29.93 in 10.0 mi West 10.4 mph - 0.00 in   Overcast
7:50 PM 59.0 °F 50.0 °F 72% 29.92 in 10.0 mi West 8.1 mph - N/A Rain Light Rain
7:58 PM 59.4 °F 50.4 °F 72% 29.94 in 10.0 mi West 8.1 mph - 0.00 in Rain Light Rain
8:04 PM 59.0 °F 50.0 °F 72% 29.92 in 10.0 mi WSW 9.2 mph - N/A   Overcast
8:44 PM 59.0 °F 50.0 °F 72% 29.92 in 10.0 mi West 8.1 mph - N/A Rain Light Rain
8:56 PM 57.2 °F 50.0 °F 77% 29.92 in 10.0 mi West 9.2 mph - N/A   Overcast
8:58 PM 57.2 °F 50.0 °F 77% 29.92 in 10.0 mi WSW 8.1 mph - 0.00 in   Overcast
9:35 PM 57.2 °F 50.0 °F 77% 29.92 in 10.0 mi West 11.5 mph - N/A Rain Light Rain
9:58 PM 55.8 °F 51.4 °F 85% 29.94 in 6.0 mi WSW 6.9 mph - 0.03 in Rain Light Rain
10:08 PM 55.4 °F 51.8 °F 88% 29.92 in 10.0 mi West 5.8 mph - N/A Rain Light Rain
10:33 PM 55.4 °F 51.8 °F 88% 29.92 in 10.0 mi WSW 6.9 mph - N/A   Overcast
10:48 PM 53.6 °F 51.8 °F 94% 29.92 in 10.0 mi WSW 5.8 mph - N/A   Overcast
10:51 PM 53.6 °F 51.8 °F 94% 29.92 in 10.0 mi WSW 5.8 mph - N/A   Light Drizzle
10:58 PM 54.3 °F 52.5 °F 94% 29.94 in 10.0 mi WSW 4.6 mph - 0.00 in Rain Light Rain
11:18 PM 53.6 °F 53.6 °F 100% 29.91 in 10.0 mi SSW 5.8 mph - N/A Rain Light Rain
11:19 PM 53.6 °F 53.6 °F 100% 29.91 in 10.0 mi SSW 5.8 mph - N/A   Overcast
11:54 PM 55.4 °F 51.8 °F 88% 29.91 in 10.0 mi SSW 5.8 mph - N/A Rain Light Rain
11:58 PM 54.5 °F 52.5 °F 93% 29.92 in 9.0 mi SSW 8.1 mph - 0.00 in Rain Light Rain